User: anonymous   Login
Location: Unspecified
(0.0000°N, 0.0000°E)
Time: 20:24:09
(UTC+00:00)
Language:

NOAA 17 - Orbit

View from above orbital plane
View from above orbital plane
View from above satellite
View from above satellite

Ground track
Ground track

The orbit data is extracted from the following two-line orbital elements,

1 27453U 02032A   17230.54456815 -.00000005  00000-0  15956-4 0  9995
2 27453  98.4399 192.6532 0012246  22.9729 337.1996 14.24991330787645
Epoch (UTC): 18 August 2017 13:04:10
Eccentricity: 0.0012246
inclination: 98.4399°
perigee height: 800 km
apogee height: 817 km
right ascension of ascending node: 192.6532°
argument of perigee: 22.9729°
revolutions per day: 14.24991330
mean anomaly at epoch: 337.1996°
orbit number at epoch: 78764

The dashed part of the orbit path shows where the satellite is in the earth's shadow,  

DLR